Location: ???????
(55.4231°N, 38.5570°E)
Time: 14:49:13
(UTC+00:00)

Cosmos 2333 - Pass Details

Date: 05 August 2024
Orbit: 829 x 864 km, 70.9° (Epoch: 19 September)

Event Time Altitude Azimuth Distance (km) Brightness Sun altitude
Exits shadow 00:11:06 12° 206° (SSW) 2,319 5.9 -10.2°
Maximum altitude 00:16:23 80° 122° (ESE) 883 4.3 -9.8°
Drops below altitude 10° 00:22:11 10° 36° (NE) 2,518 8.3 -9.2°
Sets 00:24:40 0° 35° (NE) 3,459 9.7 -9.0°
